CST,Max TemperatureF,Mean TemperatureF,Min TemperatureF,Max Dew PointF,MeanDew PointF,Min DewpointF,Max Humidity, Mean Humidity, Min Humidity, Max Sea Level PressureIn, Mean Sea Level PressureIn, Min Sea Level PressureIn, Max VisibilityMiles, Mean VisibilityMiles, Min VisibilityMiles, Max Wind SpeedMPH, Mean Wind SpeedMPH, Max Gust SpeedMPH,PrecipitationIn, CloudCover, Events, WindDirDegrees
2012-12-1,67,54,40,53,48,38,86,72,58,30.11,30.02,29.92,10,9,4,25,14,37,0.00,2,,179
2012-12-2,71,61,51,57,54,51,93,75,57,30.03,29.98,29.91,10,9,4,21,9,26,0.00,3,,219
2012-12-3,74,66,58,61,58,55,93,77,61,30.00,29.93,29.82,10,8,4,31,17,40,T,4,Rain,181
2012-12-4,64,51,38,54,43,33,93,72,51,30.30,30.12,29.96,10,8,2,15,7,20,0.87,4,Rain,326
2012-12-5,51,42,32,36,32,28,85,69,52,30.43,30.32,30.19,10,10,10,13,6,15,0.00,0,,86
2012-12-6,55,46,36,43,37,31,82,71,59,30.17,30.04,29.95,10,10,5,15,7,17,0.08,3,Rain,158
2012-12-7,50,49,47,46,45,43,93,87,80,29.96,29.89,29.84,8,2,0,14,5,15,0.19,8,Fog-Rain,38
2012-12-8,49,46,43,46,41,36,93,85,76,30.05,29.95,29.86,10,4,0,16,7,22,0.02,8,Fog-Rain,356
2012-12-9,50,43,35,46,39,28,89,83,76,30.00,29.86,29.79,10,7,1,22,11,29,0.14,7,Rain-Snow,293
2012-12-10,35,31,26,27,22,19,75,67,59,30.06,29.95,29.86,10,10,9,21,12,26,T,8,Snow,286
2012-12-11,40,31,22,25,22,17,84,67,50,30.22,30.12,30.06,10,10,9,16,7,24,0.00,0,Snow,213
2012-12-12,49,38,27,29,25,20,75,60,45,30.35,30.29,30.23,10,10,9,16,8,23,0.00,0,Snow,179
2012-12-13,50,42,33,32,28,25,75,62,49,30.32,30.25,30.17,10,10,9,23,13,29,0.00,0,Snow,180
2012-12-14,57,46,35,38,31,26,70,56,41,30.22,30.13,29.99,10,10,10,20,9,25,0.04,1,Rain,188
2012-12-15,53,48,43,51,46,36,96,86,76,29.95,29.71,29.58,10,9,3,25,12,35,0.52,8,Rain,176
2012-12-16,50,45,39,46,40,35,93,88,82,29.78,29.72,29.66,10,10,9,15,6,17,0.00,8,,290
2012-12-17,39,36,32,37,35,33,100,93,85,29.80,29.73,29.67,10,4,1,10,4,13,0.14,8,Rain-Snow,325
2012-12-18,52,41,30,40,34,30,100,82,63,29.92,29.77,29.60,10,8,4,25,13,35,0.00,2,,211
2012-12-19,45,38,31,39,35,30,96,89,82,30.05,29.90,29.57,10,8,2,21,10,26,0.14,6,Rain,84
2012-12-20,52,38,24,50,32,18,100,90,79,29.85,29.43,29.17,10,5,0,38,22,49,0.96,8,Fog-Rain-Snow-Thunderstorm,245
2012-12-21,30,24,18,17,14,11,84,67,49,30.30,30.13,29.85,10,10,10,29,15,38,T,1,,296
2012-12-22,37,25,12,26,18,7,92,74,56,30.30,30.16,29.95,10,10,10,15,7,20,0.00,0,,184
2012-12-23,37,30,23,30,26,21,100,85,69,30.02,29.96,29.91,10,9,5,10,5,13,0.00,0,,39
2012-12-24,32,27,21,30,24,16,100,89,77,30.17,29.98,29.84,10,5,2,18,10,23,T,7,,319
2012-12-25,29,26,22,27,22,18,92,81,69,30.32,30.20,30.09,10,9,6,20,12,25,0.00,7,,12
2012-12-26,32,30,27,25,24,22,85,79,72,30.17,30.05,29.97,10,10,10,24,15,33,0.00,8,,351
2012-12-27,31,28,24,23,21,20,88,76,63,30.23,30.17,30.12,10,10,10,15,6,18,0.00,8,,86
2012-12-28,34,31,28,30,28,23,100,89,78,30.11,30.00,29.92,10,9,8,13,6,17,T,8,,162
2012-12-29,31,25,18,29,21,15,100,84,68,30.34,30.10,29.90,10,8,2,23,12,28,T,6,Snow,298
2012-12-30,42,30,18,28,22,15,92,74,55,30.41,30.33,30.18,10,10,8,20,9,24,0.00,0,,205
2012-12-31,36,29,22,34,28,19,100,82,64,30.18,30.13,30.09,10,6,0,16,9,21,0.18,7,Fog-Snow,276